Regional Weather Roundup
Issued by NWS

Home | Current Version | Previous Version | Text Only | Print | Product List | Glossary On
Versions: 1 2 3 4 5 6 7 8 9 10 11 12 13 14 15 16 17 18 19 20 21 22 23 24 25 26 27 28 29 30 31 32 33 34 35 36 37 38 39 40 41 42 43 44 45 46 47 48 49 50
000
ASUS43 KDTX 312310
RWRMI
MICHIGAN HOURLY REGIONAL WEATHER ROUNDUP
NATIONAL WEATHER SERVICE DETROIT/PONTIAC MI
700 PM EDT THU JUL 31 2014

NOTE: "FAIR" INDICATES FEW OR NO CLOUDS BELOW 12,000 FEET WITH NO
SIGNIFICANT WEATHER AND/OR OBSTRUCTION TO VISIBILITY.

MIZ047>049-052>055-059>063-066>070-074>076-081>083-010000-
SOUTHEAST LOWER MICHIGAN

CITY           SKY/WX    TMP DP  RH WIND       PRES   REMARKS
ADRIAN         MOSUNNY   79  58  48 W12G17    30.03S
ALMA           MOSUNNY   72  60  64 CALM      30.00S
ANN ARBOR      SUNNY     79  57  46 W9        30.02S
BAD AXE        SUNNY     74  55  50 W3        29.99S
DETROIT CITY   PTSUNNY   79  62  56 CALM      30.00S
DETROIT        PTSUNNY   79  58  48 SW9       30.01S
FLINT          MOSUNNY   74  57  55 N6        30.00S
GROSSE ILE     PTSUNNY   79  57  47 SW7       30.00S
HILLSDALE      SUNNY     78  58  49 W8        30.04F
HOWELL         SUNNY     76  56  50 SW10      30.01S

CITY           SKY/WX    TMP DP  RH WIND       PRES   REMARKS
JACKSON        SUNNY     76  59  55 W7        30.03S
LAMBERTVILLE   CLOUDY    79  55  44 W6        30.02S
LANSING        SUNNY     77  58  51 W10       30.02R
LAPEER         NOT AVBL
MASON          SUNNY     76  57  51 W7        30.02S
MONROE         SUNNY     81  59  47 W6        30.00S
MT. CLEMENS    MOSUNNY   77  60  56 E7        29.99S
PONTIAC        MOSUNNY   76  58  53 SW10      30.00S
PORT HOPE        N/A     76  51  41 SW5       29.97S
PORT HURON     MOSUNNY   70  57  64 CALM      30.01F
TRI CITIES     MOSUNNY   77  57  50 SW7       29.99S
YPSILANTI      SUNNY     82  59  45 W12       30.01F
$$
MIZ043>046-050>051-056>058-064>065-071>073-077>080-010000-
SOUTHWEST LOWER MICHIGAN

CITY           SKY/WX    TMP DP  RH WIND       PRES   REMARKS
BATTLE CREEK   SUNNY     77  59  53 W8        30.04S
BENTON HARBOR  PTSUNNY   77  55  46 SW7       30.02S
BIG RAPIDS     MOSUNNY   75  56  51 W7        29.99S
COLDWATER      SUNNY     78  56  47 W9        30.04S
HOLLAND        SUNNY     78  60  53 SW9       30.02F
GRAND RAPIDS   MOSUNNY   78  59  51 W13       30.02S
KALAMAZOO      SUNNY     78  57  48 W10       30.03S
MARSHALL       SUNNY     76  59  55 W7G20     30.03S
MUSKEGON       PTSUNNY   73  58  59 S8        30.01F
$$
MIZ016>042-010000-
NORTHERN LOWER MICHIGAN

CITY           SKY/WX    TMP DP  RH WIND       PRES   REMARKS
ALPENA         MOSUNNY   76  50  40 W8        29.95S
BEAVER ISLAND  CLOUDY    66  60  81 W7        29.96S
BELLAIRE       PTSUNNY   75  50  41 CALM      29.95F
CADILLAC       SUNNY     74  52  47 W6        29.99S
CHARLEVOIX     MOSUNNY   73  56  55 SW5       29.99S
FRANKFORT      CLEAR     70  59  66 W8        29.98S
GAYLORD        SUNNY     73  46  38 W8        29.98S
GRAYLING       SUNNY     77  48  36 W7        29.99S
HARBOR SPRINGS MOSUNNY   71  55  58 W6        29.96S
HOUGHTON LAKE  MOSUNNY   75  50  41 W9        29.98S
MANISTEE       SUNNY     73  59  60 W7        29.99S
OSCODA         PTSUNNY   77  49  36 W10       29.95S
PELLSTON       CLOUDY    70  56  61 W7        29.96S
TRAVERSE CITY  MOSUNNY   78  47  33 W8        29.95S
$$
MIZ007>008-015-010000-
EASTERN UPPER MICHIGAN

CITY           SKY/WX    TMP DP  RH WIND       PRES   REMARKS
KINROSS        MOSUNNY   68  57  68 NW3       29.95S
MACKINAC ISLAN MOSUNNY   66  58  74 W12       29.95S
NEWBERRY       PTSUNNY   70  49  47 N7        29.94S
S. S. MARIE    SUNNY     66  52  60 NW9       29.95S
$$
MIZ004>006-011>014-085-010000-
CENTRAL UPPER MICHIGAN

CITY           SKY/WX    TMP DP  RH WIND       PRES   REMARKS
MANISTIQUE     PTSUNNY   64  59  82 SW8       29.95S
ESCANABA       SUNNY     79  46  31 NW9       29.93R
MENOMINEE      MOSUNNY   79  52  38 W5        29.93S
SAWYER-GWINN   MOSUNNY   70  50  49 NE9       29.96S
$$
MIZ001>003-009>011-084-010000-
WESTERN UPPER MICHIGAN

CITY           SKY/WX    TMP DP  RH WIND       PRES   REMARKS
IRON MOUNTAIN  SUNNY     77  47  34 NW12      29.95S
HOUGHTON       SUNNY     71  47  42 W9        29.95S
COPPER HARBOR    N/A     72  51  47 N8        29.92S
$$

ABBREVIATIONS USED IN REMARKS
   TC - TEMPERATURE IN CELSIUS
  WCI - WIND CHILL INDEX
   HX - HEAT INDEX
  VSB - VISIBILITY



USA.gov is the U.S. government's official web portal to all federal, state and local government web resources and services.